09-12-2023, 00:00:07,    159,    0.3,    4.8,   0.00,   0.00, 1002.5,    0.6, -999.0
09-12-2023, 00:00:18,    158,    0.0,    4.7,   0.00,   0.00, 1002.3,    0.5, -999.0
09-12-2023, 00:00:27,    159,    0.0,    4.7,   0.00,   0.00, 1002.3,    0.4, -999.0
09-12-2023, 00:00:37,    159,    0.1,    4.6,   0.00,   0.00, 1002.4,    0.5, -999.0
09-12-2023, 00:00:47,    159,    0.0,    4.7,   0.00,   0.00, 1002.4,    0.4, -999.0
09-12-2023, 00:00:57,    158,    0.0,    4.6,   0.00,   0.00, 1002.3,    0.6, -999.0
09-12-2023, 00:01:07,    159,    0.0,    4.6,   0.00,   0.00, 1002.3,    0.5, -999.0
09-12-2023, 00:01:17,    158,    0.0,    4.6,   0.00,   0.00, 1002.3,    0.5, -999.0
09-12-2023, 00:01:27,    158,    0.0,    4.6,   0.00,   0.00, 1002.3,    0.7, -999.0
09-12-2023, 00:01:37,    158,    0.0,    4.6,   0.00,   0.00, 1002.3,    0.5, -999.0
09-12-2023, 00:01:47,    159,    0.1,    4.7,   0.00,   0.00, 1002.3,    0.4, -999.0
09-12-2023, 00:01:57,    166,    0.4,    4.7,   0.00,   0.00, 1002.4,    0.5, -999.0
09-12-2023, 00:02:07,    166,    0.0,    4.6,   0.00,   0.00, 1002.3,    0.5, -999.0
09-12-2023, 00:02:17,    166,    0.0,    4.6,   0.00,   0.00, 1002.3,    0.4, -999.0
09-12-2023, 00:02:27,    166,    0.0,    4.6,   0.00,   0.00, 1002.3,    0.5, -999.0
09-12-2023, 00:02:37,    166,    0.0,    4.6,   0.00,   0.00, 1002.3,    0.5, -999.0
09-12-2023, 00:02:47,    166,    0.0,    4.6,   0.00,   0.00, 1002.3,    0.5, -999.0
09-12-2023, 00:02:57,    166,    0.0,    4.6,   0.00,   0.00, 1002.3,    0.5, -999.0
09-12-2023, 00:03:07,    166,    0.0,    4.6,   0.00,   0.00, 1002.3,    0.5, -999.0
09-12-2023, 00:03:17,    165,    0.0,    4.6,   0.00,   0.00, 1002.3,    0.5, -999.0
09-12-2023, 00:03:27,    166,    0.0,    4.6,   0.00,   0.00, 1002.3,    0.5, -999.0
09-12-2023, 00:03:37,    166,    0.0,    4.6,   0.00,   0.00, 1002.3,    0.7, -999.0
09-12-2023, 00:03:47,    166,    0.0,    4.6,   0.00,   0.00, 1002.3,    0.6, -999.0
09-12-2023, 00:03:57,    165,    0.0,    4.6,   0.00,   0.00, 1002.2,    0.6, -999.0
09-12-2023, 00:04:07,    166,    0.3,    4.7,   0.00,   0.00, 1002.4,    0.6, -999.0
09-12-2023, 00:04:17,    159,    0.8,    4.7,   0.00,   0.00, 1002.4,    0.8, -999.0
09-12-2023, 00:04:27,    159,    0.9,    4.7,   0.00,   0.00, 1002.3,    0.5, -999.0
09-12-2023, 00:04:37,    158,    1.8,    4.7,   0.00,   0.00, 1002.4,    0.7, -999.0
09-12-2023, 00:04:47,    157,    0.3,    4.7,   0.00,   0.00, 1002.3,    0.5, -999.0
09-12-2023, 00:04:57,    157,    0.0,    4.6,   0.00,   0.00, 1002.2,    0.6, -999.0
09-12-2023, 00:05:07,    157,    0.0,    4.7,   0.00,   0.00, 1002.2,    0.5, -999.0
09-12-2023, 00:05:17,    157,    0.0,    4.6,   0.00,   0.00, 1002.2,    0.7, -999.0
09-12-2023, 00:05:27,    157,    0.0,    4.6,   0.00,   0.00, 1002.2,    0.5, -999.0
09-12-2023, 00:05:37,    157,    0.0,    4.7,   0.00,   0.00, 1002.2,    0.5, -999.0
09-12-2023, 00:05:47,    157,    0.0,    4.6,   0.00,   0.00, 1002.2,    0.6, -999.0
09-12-2023, 00:05:56,    157,    0.0,    4.5,   0.00,   0.00, 1002.2,    0.5, -999.0
09-12-2023, 00:06:07,    157,    0.0,    4.6,   0.00,   0.00, 1002.2,    0.4, -999.0
09-12-2023, 00:06:17,    157,    0.0,    4.6,   0.00,   0.00, 1002.2,    0.6, -999.0
09-12-2023, 00:06:27,    157,    0.0,    4.6,   0.00,   0.00, 1002.2,    0.3, -999.0
09-12-2023, 00:06:36,    157,    0.0,    4.7,   0.00,   0.00, 1002.2,    0.5, -999.0
09-12-2023, 00:06:47,    155,    0.9,    4.6,   0.00,   0.00, 1002.3,    0.6, -999.0
09-12-2023, 00:06:57,    154,    0.4,    4.7,   0.00,   0.00, 1002.2,    0.4, -999.0
09-12-2023, 00:07:06,    154,    0.0,    4.6,   0.00,   0.00, 1002.1,    0.5, -999.0
09-12-2023, 00:07:16,    155,    0.0,    4.6,   0.00,   0.00, 1002.1,    0.4, -999.0
09-12-2023, 00:07:27,    155,    0.0,    4.6,   0.00,   0.00, 1002.2,    0.5, -999.0
09-12-2023, 00:07:36,    153,    0.0,    4.6,   0.00,   0.00, 1002.1,    0.5, -999.0
09-12-2023, 00:07:46,    155,    0.0,    4.6,   0.00,   0.00, 1002.1,    0.6, -999.0
09-12-2023, 00:07:56,    155,    0.0,    4.6,   0.00,   0.00, 1002.1,    0.5, -999.0
09-12-2023, 00:08:07,    155,    0.0,    4.7,   0.00,   0.00, 1002.2,    0.3, -999.0
09-12-2023, 00:08:16,    155,    0.0,    4.6,   0.00,   0.00, 1002.1,    0.6, -999.0
09-12-2023, 00:08:26,    155,    0.0,    4.6,   0.00,   0.00, 1002.1,    0.4, -999.0
09-12-2023, 00:08:36,    155,    0.0,    4.6,   0.00,   0.00, 1002.1,    0.5, -999.0
09-12-2023, 00:08:46,    155,    0.0,    4.6,   0.00,   0.00, 1002.0,    0.6, -999.0
09-12-2023, 00:08:56,    155,    0.2,    4.6,   0.00,   0.00, 1002.1,    0.5, -999.0
09-12-2023, 00:09:06,    154,    0.5,    4.7,   0.00,   0.00, 1002.1,    0.6, -999.0
09-12-2023, 00:09:16,    155,    0.1,    4.6,   0.00,   0.00, 1002.1,    0.5, -999.0
09-12-2023, 00:09:26,    155,    0.3,    4.6,   0.00,   0.00, 1002.1,    0.4, -999.0
09-12-2023, 00:09:36,    155,    0.3,    4.6,   0.00,   0.00, 1002.1,    0.5, -999.0
09-12-2023, 00:09:46,    154,    0.0,    4.6,   0.00,   0.00, 1002.0,    0.3, -999.0
09-12-2023, 00:09:56,    154,    0.1,    4.6,   0.00,   0.00, 1002.1,    0.4, -999.0
09-12-2023, 00:10:06,    155,    0.0,    4.6,   0.00,   0.00, 1002.1,    0.5, -999.0
09-12-2023, 00:10:16,    154,    0.0,    4.6,   0.00,   0.00, 1002.1,    0.7, -999.0
09-12-2023, 00:10:26,    155,    0.0,    4.5,   0.00,   0.00, 1002.0,    0.5, -999.0
09-12-2023, 00:10:36,    154,    0.0,    4.6,   0.00,   0.00, 1002.0,    0.6, -999.0
09-12-2023, 00:10:46,    155,    0.0,    4.6,   0.00,   0.00, 1002.0,    0.6, -999.0
09-12-2023, 00:10:56,    154,    0.0,    4.6,   0.00,   0.00, 1002.0,    0.4, -999.0
09-12-2023, 00:11:06,    155,    0.0,    4.6,   0.00,   0.00, 1002.0,    0.3, -999.0
09-12-2023, 00:11:16,    157,    0.0,    4.6,   0.00,   0.00, 1002.0,    0.4, -999.0
09-12-2023, 00:11:26,    154,    0.0,    4.6,   0.00,   0.00, 1002.0,    0.5, -999.0
09-12-2023, 00:11:36,    155,    0.0,    4.6,   0.00,   0.00, 1002.0,    0.4, -999.0
09-12-2023, 00:11:46,    141,    0.4,    4.6,   0.00,   0.00, 1002.0,    0.8, -999.0
09-12-2023, 00:11:56,    153,    0.6,    4.7,   0.00,   0.00, 1002.0,    0.7, -999.0
09-12-2023, 00:12:06,    152,    0.3,    4.7,   0.00,   0.00, 1002.0,    0.5, -999.0
09-12-2023, 00:12:16,    151,    0.0,    4.6,   0.00,   0.00, 1002.0,    0.6, -999.0
09-12-2023, 00:12:26,    151,    0.0,    4.6,   0.00,   0.00, 1001.9,    0.5, -999.0
09-12-2023, 00:12:36,    152,    0.0,    4.6,   0.00,   0.00, 1001.9,    0.5, -999.0
09-12-2023, 00:12:46,    152,    0.0,    4.6,   0.00,   0.00, 1001.9,    0.4, -999.0
09-12-2023, 00:12:56,    153,    0.0,    4.6,   0.00,   0.00, 1001.9,    0.5, -999.0
09-12-2023, 00:13:05,    153,    0.0,    4.7,   0.00,   0.00, 1001.9,    0.6, -999.0
09-12-2023, 00:13:16,    153,    0.1,    4.7,   0.00,   0.00, 1001.9,    0.4, -999.0
09-12-2023, 00:13:26,    154,    0.2,    4.7,   0.00,   0.00, 1001.9,    0.7, -999.0
09-12-2023, 00:13:36,    155,    0.4,    4.7,   0.00,   0.00, 1002.0,    0.7, -999.0
09-12-2023, 00:13:46,    177,    0.7,    4.7,   0.00,   0.00, 1002.0,    0.3, -999.0
09-12-2023, 00:13:56,    176,    0.0,    4.7,   0.00,   0.00, 1001.8,    0.4, -999.0
09-12-2023, 00:14:06,    176,    0.1,    4.7,   0.00,   0.00, 1001.9,    0.7, -999.0
09-12-2023, 00:14:15,    174,    0.0,    4.7,   0.00,   0.00, 1001.8,    0.6, -999.0
09-12-2023, 00:14:26,    180,    1.5,    4.7,   0.00,   0.00, 1002.0,    0.6, -999.0
09-12-2023, 00:14:36,    179,    0.2,    4.7,   0.00,   0.00, 1001.9,    0.6, -999.0
09-12-2023, 00:14:45,    165,    0.6,    4.7,   0.00,   0.00, 1001.9,    0.5, -999.0
09-12-2023, 00:14:55,    165,    0.9,    4.8,   0.00,   0.00, 1002.0,    0.2, -999.0
09-12-2023, 00:15:06,    165,    0.2,    4.7,   0.00,   0.00, 1001.9,    1.2, -999.0
09-12-2023, 00:15:16,    163,    0.8,    4.6,   0.00,   0.00, 1001.9,    0.7, -999.0
09-12-2023, 00:15:25,    162,    0.8,    4.7,   0.00,   0.00, 1001.9,    0.4, -999.0
09-12-2023, 00:15:35,    158,    1.2,    4.7,   0.00,   0.00, 1001.9,    0.1, -999.0
09-12-2023, 00:15:46,    157,    0.2,    4.7,   0.00,   0.00, 1001.8,    0.4, -999.0
09-12-2023, 00:15:55,    157,    0.0,    4.7,   0.00,   0.00, 1001.8,    0.6, -999.0
09-12-2023, 00:16:05,    157,    0.0,    4.7,   0.00,   0.00, 1001.8,    0.3, -999.0
09-12-2023, 00:16:15,    158,    0.0,    4.7,   0.00,   0.00, 1001.8,    0.5, -999.0
09-12-2023, 00:16:25,    167,    0.5,    4.7,   0.00,   0.00, 1001.8,    0.7, -999.0
09-12-2023, 00:16:35,    167,    0.2,    4.7,   0.00,   0.00, 1001.8,    0.6, -999.0
09-12-2023, 00:16:45,    166,    0.5,    4.7,   0.00,   0.00, 1001.8,    0.6, -999.0
09-12-2023, 00:16:56,    178,    0.6,    4.8,   0.00,   0.00, 1001.8,    0.5, -999.0
09-12-2023, 00:17:05,    178,    0.0,    4.7,   0.00,   0.00, 1001.7,    0.5, -999.0
09-12-2023, 00:17:15,    178,    0.0,    4.5,   0.00,   0.00, 1001.7,    0.6, -999.0
09-12-2023, 00:17:25,    177,    0.0,    4.7,   0.00,   0.00, 1001.7,    0.4, -999.0
09-12-2023, 00:17:35,    176,    0.2,    4.7,   0.00,   0.00, 1001.9,    0.4, -999.0
09-12-2023, 00:17:45,    176,    0.0,    4.5,   0.00,   0.00, 1001.8,    0.3, -999.0
09-12-2023, 00:17:55,    172,    0.6,    4.7,   0.00,   0.00, 1001.9,    0.7, -999.0
09-12-2023, 00:18:05,    172,    0.2,    4.7,   0.00,   0.00, 1001.9,    0.3, -999.0
09-12-2023, 00:18:15,    171,    0.0,    4.7,   0.00,   0.00, 1001.8,    0.5, -999.0
09-12-2023, 00:18:25,    172,    0.1,    4.7,   0.00,   0.00, 1001.9,    0.5, -999.0
09-12-2023, 00:18:35,    171,    0.0,    4.6,   0.00,   0.00, 1001.8,    0.5, -999.0
09-12-2023, 00:18:45,    169,    0.5,    4.7,   0.00,   0.00, 1001.8,    0.1, -999.0
09-12-2023, 00:18:55,    170,    0.0,    4.7,   0.00,   0.00, 1001.8,    0.8, -999.0
09-12-2023, 00:19:05,    169,    0.0,    4.7,   0.00,   0.00, 1001.8,    0.5, -999.0
09-12-2023, 00:19:15,    169,    0.0,    4.7,   0.00,   0.00, 1001.8,    0.6, -999.0
09-12-2023, 00:19:25,    169,    0.0,    4.7,   0.00,   0.00, 1001.8,    0.4, -999.0
09-12-2023, 00:19:35,    168,    0.0,    4.7,   0.00,   0.00, 1001.8,    0.7, -999.0
09-12-2023, 00:19:45,    170,    0.0,    4.6,   0.00,   0.00, 1001.8,    1.1, -999.0
09-12-2023, 00:19:55,    169,    0.0,    4.6,   0.00,   0.00, 1001.8,    0.8, -999.0
09-12-2023, 00:20:05,    168,    0.0,    4.6,   0.00,   0.00, 1001.8,    0.7, -999.0
09-12-2023, 00:20:15,    169,    0.0,    4.6,   0.00,   0.00, 1001.8,    0.3, -999.0
09-12-2023, 00:20:25,    169,    0.0,    4.7,   0.00,   0.00, 1001.8,    0.6, -999.0
09-12-2023, 00:20:35,    175,    0.6,    4.7,   0.00,   0.00, 1001.9,    0.3, -999.0
09-12-2023, 00:20:45,    127,    0.8,    4.8,   0.00,   0.00, 1001.9,    0.8, -999.0
09-12-2023, 00:20:55,    134,    1.2,    4.8,   0.00,   0.00, 1002.0,    0.6, -999.0
09-12-2023, 00:21:05,    160,    0.7,    4.8,   0.00,   0.00, 1001.9,    0.6, -999.0
09-12-2023, 00:21:15,    159,    0.4,    4.8,   0.00,   0.00, 1002.0,    0.5, -999.0
09-12-2023, 00:21:25,    159,    0.0,    4.7,   0.00,   0.00, 1001.8,    0.6, -999.0
09-12-2023, 00:21:35,    159,    0.0,    4.7,   0.00,   0.00, 1001.8,    0.1, -999.0
09-12-2023, 00:21:45,    159,    0.0,    4.7,   0.00,   0.00, 1001.8,    0.1, -999.0
09-12-2023, 00:21:55,    159,    0.0,    4.7,   0.00,   0.00, 1001.8,    0.8, -999.0
09-12-2023, 00:22:05,    159,    0.3,    4.7,   0.00,   0.00, 1001.9,    0.6, -999.0
09-12-2023, 00:22:15,    159,    0.0,    4.7,   0.00,   0.00, 1001.8,    0.6, -999.0
09-12-2023, 00:22:25,    159,    0.0,    4.7,   0.00,   0.00, 1001.8,    0.4, -999.0
09-12-2023, 00:22:34,    159,    0.0,    4.7,   0.00,   0.00, 1001.8,    0.4, -999.0
09-12-2023, 00:22:45,    159,    0.5,    4.7,   0.00,   0.00, 1001.9,    0.5, -999.0
09-12-2023, 00:22:55,    159,    0.3,    4.8,   0.00,   0.00, 1001.9,    0.6, -999.0
09-12-2023, 00:23:04,    158,    0.0,    4.7,   0.00,   0.00, 1001.8,    0.3, -999.0
09-12-2023, 00:23:14,    159,    0.0,    4.7,   0.00,   0.00, 1001.8,    0.5, -999.0
09-12-2023, 00:23:25,    159,    0.0,    4.7,   0.00,   0.00, 1001.8,    0.6, -999.0
09-12-2023, 00:23:35,    159,    0.0,    4.7,   0.00,   0.00, 1001.8,    0.7, -999.0
09-12-2023, 00:23:44,    159,    0.8,    4.8,   0.00,   0.00, 1001.9,    0.7, -999.0
09-12-2023, 00:23:54,    161,    1.3,    4.7,   0.00,   0.00, 1002.0,    0.5, -999.0
09-12-2023, 00:24:05,    161,    0.6,    4.9,   0.00,   0.00, 1001.9,    0.5, -999.0
09-12-2023, 00:24:14,    161,    0.3,    4.8,   0.00,   0.00, 1001.9,    0.5, -999.0
09-12-2023, 00:24:24,    181,    0.6,    4.9,   0.00,   0.00, 1001.9,    0.6, -999.0
09-12-2023, 00:24:34,    174,    0.4,    4.8,   0.00,   0.00, 1001.9,    0.5, -999.0
09-12-2023, 00:24:44,    174,    0.2,    4.8,   0.00,   0.00, 1001.9,    0.5, -999.0
09-12-2023, 00:24:54,    174,    0.0,    4.8,   0.00,   0.00, 1001.8,    0.4, -999.0
09-12-2023, 00:25:04,    174,    0.0,    4.7,   0.00,   0.00, 1001.8,    0.5, -999.0
09-12-2023, 00:25:14,    173,    0.0,    4.7,   0.00,   0.00, 1001.9,    0.5, -999.0
09-12-2023, 00:25:24,    174,    0.2,    4.8,   0.00,   0.00, 1001.9,    0.4, -999.0
09-12-2023, 00:25:34,    174,    0.0,    4.7,   0.00,   0.00, 1001.8,    0.3, -999.0
09-12-2023, 00:25:44,    174,    0.5,    4.8,   0.00,   0.00, 1002.0,    0.4, -999.0
09-12-2023, 00:25:54,    174,    0.5,    4.8,   0.00,   0.00, 1002.0,    0.6, -999.0
09-12-2023, 00:26:04,    173,    0.5,    4.8,   0.00,   0.00, 1001.9,    0.6, -999.0
09-12-2023, 00:26:14,    173,    0.5,    4.8,   0.00,   0.00, 1002.0,    0.7, -999.0
09-12-2023, 00:26:24,    173,    0.0,    4.7,   0.00,   0.00, 1001.9,    0.7, -999.0
09-12-2023, 00:26:34,    173,    0.0,    4.7,   0.00,   0.00, 1001.9,    0.4, -999.0
09-12-2023, 00:26:44,    173,    0.0,    4.7,   0.00,   0.00, 1001.9,    0.6, -999.0
09-12-2023, 00:26:54,    172,    0.8,    4.8,   0.00,   0.00, 1002.0,    0.6, -999.0
09-12-2023, 00:27:04,    171,    0.0,    4.7,   0.00,   0.00, 1002.0,    0.5, -999.0
09-12-2023, 00:27:14,    168,    0.9,    4.8,   0.00,   0.00, 1002.0,    0.7, -999.0
09-12-2023, 00:27:24,    157,    1.0,    4.8,   0.00,   0.00, 1002.0,    0.4, -999.0
09-12-2023, 00:27:34,    158,    0.0,    4.7,   0.00,   0.00, 1001.9,    0.6, -999.0
09-12-2023, 00:27:44,    158,    0.0,    4.6,   0.00,   0.00, 1001.9,    0.5, -999.0
09-12-2023, 00:27:54,    158,    0.2,    4.7,   0.00,   0.00, 1001.9,    0.8, -999.0
09-12-2023, 00:28:04,    159,    0.3,    4.8,   0.00,   0.00, 1002.0,    0.5, -999.0
09-12-2023, 00:28:14,    157,    0.0,    4.7,   0.00,   0.00, 1001.9,    0.7, -999.0
09-12-2023, 00:28:24,    158,    0.0,    4.8,   0.00,   0.00, 1002.0,    0.5, -999.0
09-12-2023, 00:28:34,    157,    0.9,    4.8,   0.00,   0.00, 1002.0,    0.8, -999.0
09-12-2023, 00:28:44,    158,    0.6,    4.9,   0.00,   0.00, 1002.0,    0.6, -999.0
09-12-2023, 00:28:54,    162,    0.7,    4.9,   0.00,   0.00, 1002.0,    0.5, -999.0
09-12-2023, 00:29:04,    161,    0.2,    4.7,   0.00,   0.00, 1001.9,    0.5, -999.0
09-12-2023, 00:29:14,    162,    0.0,    4.7,   0.00,   0.00, 1001.8,    0.5, -999.0
09-12-2023, 00:29:24,    161,    0.0,    4.7,   0.00,   0.00, 1001.8,    0.4, -999.0
09-12-2023, 00:29:34,    181,    0.2,    4.7,   0.00,   0.00, 1001.9,    0.7, -999.0
09-12-2023, 00:29:43,    180,    0.1,    4.8,   0.00,   0.00, 1001.9,    0.5, -999.0
09-12-2023, 00:29:54,    150,    0.9,    4.8,   0.00,   0.00, 1002.0,    0.5, -999.0
09-12-2023, 00:30:04,    150,    0.6,    4.7,   0.00,   0.00, 1001.9,    0.5, -999.0
09-12-2023, 00:30:14,    150,    0.0,    4.6,   0.00,   0.00, 1001.8,    0.8, -999.0
09-12-2023, 00:30:23,    150,    0.0,    4.7,   0.00,   0.00, 1001.8,    0.4, -999.0
09-12-2023, 00:30:34,    150,    0.0,    4.7,   0.00,   0.00, 1001.8,    0.3, -999.0
09-12-2023, 00:30:44,    150,    0.0,    4.7,   0.00,   0.00, 1001.8,    0.9, -999.0
09-12-2023, 00:30:53,    149,    0.0,    4.7,   0.00,   0.00, 1001.8,    0.7, -999.0
09-12-2023, 00:31:03,    151,    0.0,    4.7,   0.00,   0.00, 1001.8,    0.6, -999.0
09-12-2023, 00:31:14,    150,    0.0,    4.6,   0.00,   0.00, 1001.8,    0.7, -999.0
09-12-2023, 00:31:23,    150,    0.0,    4.7,   0.00,   0.00, 1001.8,    0.3, -999.0
09-12-2023, 00:31:33,    149,    0.1,    4.7,   0.00,   0.00, 1001.9,    0.8, -999.0
09-12-2023, 00:31:43,    150,    0.1,    4.7,   0.00,   0.00, 1001.9,    0.7, -999.0
09-12-2023, 00:31:54,    150,    0.0,    4.7,   0.00,   0.00, 1001.8,    0.3, -999.0
09-12-2023, 00:32:03,    153,    0.5,    4.7,   0.00,   0.00, 1002.0,    0.6, -999.0
09-12-2023, 00:32:13,    157,    0.2,    4.7,   0.00,   0.00, 1001.9,    0.7, -999.0
09-12-2023, 00:32:24,    158,    0.0,    4.7,   0.00,   0.00, 1001.8,    0.6, -999.0
09-12-2023, 00:32:33,    157,    0.0,    4.7,   0.00,   0.00, 1001.8,    0.6, -999.0
09-12-2023, 00:32:43,    158,    0.0,    4.7,   0.00,   0.00, 1001.8,    0.4, -999.0
09-12-2023, 00:32:53,    157,    0.0,    4.7,   0.00,   0.00, 1001.8,    0.6, -999.0
09-12-2023, 00:33:03,    157,    0.0,    4.7,   0.00,   0.00, 1001.8,    0.6, -999.0
09-12-2023, 00:33:13,    157,    0.0,    4.6,   0.00,   0.00, 1001.8,    0.5, -999.0
09-12-2023, 00:33:23,    157,    0.5,    4.8,   0.00,   0.00, 1001.9,    0.4, -999.0
09-12-2023, 00:33:33,    157,    0.2,    4.7,   0.00,   0.00, 1001.9,    0.7, -999.0
09-12-2023, 00:33:43,    157,    0.0,    4.7,   0.00,   0.00, 1001.8,    0.5, -999.0
09-12-2023, 00:33:53,    157,    0.0,    4.8,   0.00,   0.00, 1001.8,    0.5, -999.0
09-12-2023, 00:34:03,    157,    0.1,    4.8,   0.00,   0.00, 1001.8,    0.4, -999.0
09-12-2023, 00:34:13,    157,    0.0,    4.7,   0.00,   0.00, 1001.8,    0.6, -999.0
09-12-2023, 00:34:23,    157,    0.0,    4.7,   0.00,   0.00, 1001.8,    0.4, -999.0
09-12-2023, 00:34:33,    157,    0.0,    4.7,   0.00,   0.00, 1001.8,    0.5, -999.0
09-12-2023, 00:34:43,    158,    0.0,    4.7,   0.00,   0.00, 1001.7,    0.4, -999.0
09-12-2023, 00:34:53,    158,    0.1,    4.7,   0.00,   0.00, 1001.8,    0.6, -999.0
09-12-2023, 00:35:03,    158,    0.3,    4.7,   0.00,   0.00, 1001.9,    0.4, -999.0
09-12-2023, 00:35:13,    158,    0.0,    4.6,   0.00,   0.00, 1001.8,    0.6, -999.0
09-12-2023, 00:35:23,    157,    0.0,    4.6,   0.00,   0.00, 1001.8,    0.4, -999.0
09-12-2023, 00:35:33,    158,    0.0,    4.7,   0.00,   0.00, 1001.8,    0.5, -999.0
09-12-2023, 00:35:43,    157,    0.2,    4.7,   0.00,   0.00, 1001.9,    0.8, -999.0
09-12-2023, 00:35:53,    158,    0.1,    4.6,   0.00,   0.00, 1001.9,    0.4, -999.0
09-12-2023, 00:36:03,    157,    0.2,    4.7,   0.00,   0.00, 1001.9,    0.5, -999.0
09-12-2023, 00:36:13,    162,    0.0,    4.7,   0.00,   0.00, 1001.8,    0.5, -999.0
09-12-2023, 00:36:23,    161,    0.0,    4.6,   0.00,   0.00, 1001.8,    0.7, -999.0
09-12-2023, 00:36:33,    162,    0.1,    4.7,   0.00,   0.00, 1001.9,    0.4, -999.0
09-12-2023, 00:36:43,    161,    0.0,    4.7,   0.00,   0.00, 1001.8,    0.6, -999.0
09-12-2023, 00:36:53,    154,    0.6,    4.7,   0.00,   0.00, 1001.9,    0.5, -999.0
09-12-2023, 00:37:03,    154,    0.1,    4.7,   0.00,   0.00, 1001.9,    0.4, -999.0
09-12-2023, 00:37:13,    158,    0.1,    4.6,   0.00,   0.00, 1001.9,    0.4, -999.0
09-12-2023, 00:37:23,    190,    0.0,    4.6,   0.00,   0.00, 1001.9,    0.5, -999.0
09-12-2023, 00:37:33,    191,    0.0,    4.7,   0.00,   0.00, 1001.8,    0.6, -999.0
09-12-2023, 00:37:43,    184,    0.0,    4.6,   0.00,   0.00, 1001.9,    0.3, -999.0
09-12-2023, 00:37:53,    186,    0.0,    4.5,   0.00,   0.00, 1001.9,    0.5, -999.0
09-12-2023, 00:38:02,    186,    0.0,    4.6,   0.00,   0.00, 1001.8,    0.6, -999.0
09-12-2023, 00:38:13,    186,    0.0,    4.7,   0.00,   0.00, 1001.8,    0.4, -999.0
09-12-2023, 00:38:23,    173,    0.5,    4.7,   0.00,   0.00, 1002.0,    0.5, -999.0
09-12-2023, 00:38:32,    172,    0.1,    4.7,   0.00,   0.00, 1001.8,    0.5, -999.0
09-12-2023, 00:38:42,    161,    1.3,    4.6,   0.00,   0.00, 1001.9,    0.5, -999.0
09-12-2023, 00:38:53,    161,    0.7,    4.7,   0.00,   0.00, 1002.0,    0.5, -999.0
09-12-2023, 00:39:03,    161,    0.0,    4.7,   0.00,   0.00, 1001.8,    0.6, -999.0
09-12-2023, 00:39:12,    161,    0.0,    4.6,   0.00,   0.00, 1001.8,    0.5, -999.0
09-12-2023, 00:39:22,    161,    0.0,    4.6,   0.00,   0.00, 1001.8,    0.5, -999.0
09-12-2023, 00:39:33,    161,    0.0,    4.6,   0.00,   0.00, 1001.8,    0.4, -999.0
09-12-2023, 00:39:42,    161,    0.0,    4.6,   0.00,   0.00, 1001.8,    0.4, -999.0
09-12-2023, 00:39:52,    161,    0.1,    4.6,   0.00,   0.00, 1001.8,    0.5, -999.0
09-12-2023, 00:40:02,    165,    0.8,    4.6,   0.00,   0.00, 1001.9,    0.5, -999.0
09-12-2023, 00:40:13,    165,    0.6,    4.6,   0.00,   0.00, 1001.9,    0.5, -999.0
09-12-2023, 00:40:22,    164,    0.0,    4.6,   0.00,   0.00, 1001.8,    0.5, -999.0
09-12-2023, 00:40:32,    165,    0.0,    4.6,   0.00,   0.00, 1001.8,    0.5, -999.0
09-12-2023, 00:40:42,    165,    0.0,    4.6,   0.00,   0.00, 1001.8,    0.4, -999.0
09-12-2023, 00:40:52,    165,    0.2,    4.7,   0.00,   0.00, 1001.9,    0.7, -999.0
09-12-2023, 00:41:02,    150,    0.1,    4.6,   0.00,   0.00, 1001.8,    0.4, -999.0
09-12-2023, 00:41:12,    165,    0.8,    4.7,   0.00,   0.00, 1001.9,    0.5, -999.0
09-12-2023, 00:41:22,    165,    0.0,    4.6,   0.00,   0.00, 1001.8,    0.6, -999.0
09-12-2023, 00:41:32,    166,    0.0,    4.7,   0.00,   0.00, 1001.8,    0.6, -999.0
09-12-2023, 00:41:42,    165,    0.0,    4.6,   0.00,   0.00, 1001.8,    0.5, -999.0
09-12-2023, 00:41:52,    165,    0.0,    4.6,   0.00,   0.00, 1001.8,    0.6, -999.0
09-12-2023, 00:42:02,    166,    0.0,    4.6,   0.00,   0.00, 1001.7,    0.5, -999.0
09-12-2023, 00:42:12,    165,    0.0,    4.6,   0.00,   0.00, 1001.8,    0.7, -999.0
09-12-2023, 00:42:22,    165,    0.0,    4.7,   0.00,   0.00, 1001.7,    0.4, -999.0
09-12-2023, 00:42:32,    160,    0.7,    4.5,   0.00,   0.00, 1001.8,    0.5, -999.0
09-12-2023, 00:42:42,    176,    0.1,    4.7,   0.00,   0.00, 1001.7,    0.6, -999.0
09-12-2023, 00:42:52,    175,    0.0,    4.7,   0.00,   0.00, 1001.7,    0.6, -999.0
09-12-2023, 00:43:02,    175,    0.5,    4.7,   0.00,   0.00, 1001.8,    0.4, -999.0
09-12-2023, 00:43:12,    175,    0.3,    4.8,   0.00,   0.00, 1001.8,    0.7, -999.0
09-12-2023, 00:43:22,    174,    0.3,    4.7,   0.00,   0.00, 1001.7,    0.5, -999.0
09-12-2023, 00:43:32,    174,    0.0,    4.7,   0.00,   0.00, 1001.7,    0.6, -999.0
09-12-2023, 00:43:42,    174,    0.0,    4.7,   0.00,   0.00, 1001.7,    0.5, -999.0
09-12-2023, 00:43:52,    175,    0.0,    4.7,   0.00,   0.00, 1001.7,    0.5, -999.0
09-12-2023, 00:44:02,    175,    0.0,    4.6,   0.00,   0.00, 1001.7,    0.5, -999.0
09-12-2023, 00:44:12,    174,    0.1,    4.7,   0.00,   0.00, 1001.7,    0.4, -999.0
09-12-2023, 00:44:22,    172,    1.0,    4.8,   0.00,   0.00, 1001.8,    0.4, -999.0
09-12-2023, 00:44:32,    172,    0.2,    4.7,   0.00,   0.00, 1001.7,    0.6, -999.0
09-12-2023, 00:44:42,    172,    0.0,    4.6,   0.00,   0.00, 1001.7,    0.5, -999.0
09-12-2023, 00:44:52,    152,    1.6,    4.7,   0.00,   0.00, 1001.8,    0.5, -999.0
09-12-2023, 00:45:02,    193,    2.4,    4.7,   0.00,   0.00, 1001.8,    0.5, -999.0
09-12-2023, 00:45:12,    192,    0.1,    4.7,   0.00,   0.00, 1001.7,    0.7, -999.0
09-12-2023, 00:45:22,    190,    0.3,    4.7,   0.00,   0.00, 1001.7,    0.6, -999.0
09-12-2023, 00:45:32,    192,    0.8,    4.8,   0.00,   0.00, 1001.8,    0.6, -999.0
09-12-2023, 00:45:41,    181,    0.4,    4.8,   0.00,   0.00, 1001.8,    0.6, -999.0
09-12-2023, 00:45:52,    181,    0.0,    4.7,   0.00,   0.00, 1001.7,    0.5, -999.0
09-12-2023, 00:46:02,    180,    0.0,    4.7,   0.00,   0.00, 1001.7,    0.4, -999.0
09-12-2023, 00:46:12,    187,    0.0,    4.7,   0.00,   0.00, 1001.7,    0.5, -999.0
09-12-2023, 00:46:21,    219,    1.9,    4.7,   0.00,   0.00, 1001.8,    0.5, -999.0
09-12-2023, 00:46:32,    178,    1.0,    4.8,   0.00,   0.00, 1001.8,    0.5, -999.0
09-12-2023, 00:46:42,    179,    0.1,    4.8,   0.00,   0.00, 1001.8,    0.5, -999.0
09-12-2023, 00:46:51,    179,    0.0,    4.7,   0.00,   0.00, 1001.7,    0.4, -999.0